QTR69N EGCC-OTHH

Flight info

Callsign QTR69N
Flight time N/A
Altitude 35000
Route DESIG L603 DOLAS DCT NAVPI DCT NOLRU DCT DODEN DCT NEGIX DCT DINKU M867 XERUM DCT BAVAX DCT RADIZ DCT NIPEL DCT ELTIB DCT GLOMY DCT INLOT DCT PINDO DCT PAXIS/N0472F370 Y707 OBRAN L321 REXUM M872 WEJ L604 GAS G662 KSA N687 KINIB Z511 GISRA L681 ORLEK
Aircraft B77W/H-SDE1E2E3FGHIJ2J3J4J5M1RWXY/LB1D1

Departure

Time 2026-05-06 10:14
Airport Manchester Airport (EGCC)

Arrival

Time N/A
Airport Hamad International Airport (OTHH)
Time Latitude Longitude Altitude Speed Heading
2026-05-06 09:37 53.36520 -2.28460 219 ft 0 kts 315°
2026-05-06 09:58 53.36519 -2.28458 219 ft 1 kts 315°
2026-05-06 09:59 53.36508 -2.28441 219 ft 2 kts 315°
2026-05-06 09:59 53.36498 -2.28423 220 ft 2 kts 315°
2026-05-06 09:59 53.36490 -2.28411 220 ft 0 kts 315°
2026-05-06 09:59 53.36481 -2.28394 221 ft 2 kts 300°
2026-05-06 10:00 53.36476 -2.28371 221 ft 2 kts 277°
2026-05-06 10:00 53.36476 -2.28346 222 ft 2 kts 258°
2026-05-06 10:00 53.36481 -2.28323 222 ft 2 kts 239°
2026-05-06 10:00 53.36488 -2.28308 223 ft 1 kts 225°
2026-05-06 10:01 53.36489 -2.28307 223 ft 0 kts 225°
2026-05-06 10:05 53.36487 -2.28311 223 ft 1 kts 225°
2026-05-06 10:05 53.36476 -2.28329 222 ft 3 kts 224°
2026-05-06 10:05 53.36456 -2.28361 222 ft 4 kts 224°
2026-05-06 10:05 53.36435 -2.28396 221 ft 4 kts 224°
2026-05-06 10:06 53.36412 -2.28433 222 ft 4 kts 224°
2026-05-06 10:06 53.36397 -2.28453 222 ft 1 kts 211°
2026-05-06 10:06 53.36389 -2.28459 223 ft 1 kts 201°
2026-05-06 10:06 53.36376 -2.28463 223 ft 2 kts 176°
2026-05-06 10:07 53.36350 -2.28450 224 ft 5 kts 155°
2026-05-06 10:07 53.36314 -2.28405 226 ft 7 kts 137°
2026-05-06 10:07 53.36278 -2.28346 227 ft 6 kts 135°
2026-05-06 10:07 53.36258 -2.28311 229 ft 2 kts 135°
2026-05-06 10:08 53.36251 -2.28300 230 ft 1 kts 135°
2026-05-06 10:08 53.36239 -2.28279 231 ft 3 kts 135°
2026-05-06 10:08 53.36214 -2.28237 234 ft 7 kts 133°
2026-05-06 10:08 53.36157 -2.28136 239 ft 16 kts 135°
2026-05-06 10:09 53.36058 -2.27984 244 ft 15 kts 139°
2026-05-06 10:09 53.35961 -2.27872 245 ft 19 kts 160°
2026-05-06 10:09 53.35831 -2.27860 245 ft 15 kts 185°
2026-05-06 10:09 53.35728 -2.27876 245 ft 14 kts 187°
2026-05-06 10:10 53.35635 -2.27894 245 ft 12 kts 186°
2026-05-06 10:10 53.35550 -2.27909 245 ft 11 kts 186°
2026-05-06 10:10 53.35472 -2.27929 245 ft 12 kts 199°
2026-05-06 10:10 53.35393 -2.28023 244 ft 15 kts 225°
2026-05-06 10:11 53.35304 -2.28168 241 ft 19 kts 225°
2026-05-06 10:11 53.35215 -2.28337 238 ft 19 kts 230°
2026-05-06 10:11 53.35130 -2.28511 236 ft 19 kts 231°
2026-05-06 10:11 53.35046 -2.28682 233 ft 19 kts 231°
2026-05-06 10:12 53.34957 -2.28843 229 ft 19 kts 225°
2026-05-06 10:12 53.34859 -2.29010 222 ft 21 kts 227°
2026-05-06 10:12 53.34757 -2.29211 211 ft 24 kts 231°
2026-05-06 10:12 53.34636 -2.29337 203 ft 17 kts 183°
2026-05-06 10:13 53.34553 -2.29285 202 ft 8 kts 129°
2026-05-06 10:13 53.34547 -2.29222 205 ft 4 kts 69°
2026-05-06 10:13 53.34596 -2.29109 211 ft 28 kts 53°
2026-05-06 10:13 53.34871 -2.28536 231 ft 96 kts 51°
2026-05-06 10:14 53.35433 -2.27377 254 ft 157 kts 51°
2026-05-06 10:14 53.36193 -2.25800 543 ft 184 kts 51°
2026-05-06 10:14 53.36971 -2.24173 1344 ft 186 kts 51°
2026-05-06 10:14 53.37784 -2.22438 1890 ft 196 kts 52°
2026-05-06 10:15 53.38663 -2.20579 2297 ft 212 kts 52°
2026-05-06 10:15 53.39604 -2.18589 2741 ft 229 kts 52°
2026-05-06 10:15 53.40619 -2.16437 3243 ft 244 kts 52°
2026-05-06 10:15 53.41685 -2.14174 3996 ft 249 kts 51°
2026-05-06 10:16 53.42761 -2.11887 4706 ft 254 kts 51°
2026-05-06 10:16 53.43853 -2.09564 4951 ft 255 kts 51°
2026-05-06 10:16 53.44946 -2.07239 4964 ft 254 kts 51°
2026-05-06 10:16 53.46043 -2.04902 4961 ft 253 kts 51°
2026-05-06 10:17 53.47142 -2.02557 5047 ft 264 kts 51°
2026-05-06 10:17 53.48255 -2.00181 6021 ft 259 kts 51°
2026-05-06 10:17 53.49362 -1.97846 6845 ft 258 kts 50°
2026-05-06 10:17 53.50497 -1.95471 7473 ft 266 kts 50°
2026-05-06 10:18 53.51594 -1.92967 8121 ft 271 kts 58°
2026-05-06 10:18 53.52364 -1.90077 8733 ft 279 kts 76°
2026-05-06 10:18 53.52413 -1.86838 9322 ft 287 kts 100°
2026-05-06 10:18 53.51843 -1.83596 9973 ft 292 kts 107°
2026-05-06 10:19 53.51199 -1.80326 10438 ft 304 kts 106°
2026-05-06 10:19 53.50555 -1.76841 10748 ft 321 kts 105°
2026-05-06 10:19 53.49894 -1.73131 11105 ft 338 kts 105°
2026-05-06 10:19 53.49213 -1.69285 11472 ft 354 kts 105°
2026-05-06 10:20 53.48499 -1.65246 11858 ft 370 kts 105°
2026-05-06 10:20 53.47750 -1.61022 12323 ft 383 kts 105°
2026-05-06 10:20 53.46980 -1.56697 13014 ft 390 kts 105°
2026-05-06 10:20 53.46201 -1.52342 13758 ft 395 kts 105°
2026-05-06 10:21 53.45410 -1.47938 14532 ft 400 kts 105°
2026-05-06 10:21 53.44607 -1.43471 15367 ft 404 kts 105°
2026-05-06 10:21 53.43792 -1.38953 16168 ft 408 kts 106°
2026-05-06 10:21 53.42968 -1.34394 16964 ft 413 kts 107°
2026-05-06 10:22 53.42126 -1.29748 17713 ft 418 kts 107°
2026-05-06 10:22 53.41286 -1.25112 18459 ft 423 kts 107°
2026-05-06 10:22 53.40430 -1.20395 19190 ft 427 kts 107°
2026-05-06 10:22 53.39558 -1.15606 19913 ft 432 kts 107°
2026-05-06 10:23 53.38678 -1.10794 20610 ft 436 kts 107°
2026-05-06 10:23 53.37778 -1.05882 21299 ft 441 kts 107°
2026-05-06 10:23 53.36886 -1.01022 21958 ft 445 kts 107°
2026-05-06 10:23 53.35964 -0.96021 22611 ft 449 kts 107°
2026-05-06 10:24 53.35043 -0.91035 23231 ft 454 kts 107°
2026-05-06 10:24 53.34118 -0.86037 23833 ft 458 kts 108°
2026-05-06 10:24 53.33208 -0.81139 24419 ft 461 kts 108°
2026-05-06 10:24 53.32247 -0.75980 25006 ft 466 kts 108°
2026-05-06 10:25 53.31269 -0.70740 25574 ft 470 kts 108°
2026-05-06 10:25 53.30300 -0.65564 26123 ft 474 kts 108°
2026-05-06 10:25 53.29316 -0.60320 26672 ft 477 kts 108°
2026-05-06 10:25 53.28307 -0.54960 27201 ft 481 kts 108°
2026-05-06 10:26 53.27299 -0.49621 27726 ft 485 kts 108°
2026-05-06 10:26 53.26289 -0.44287 28218 ft 489 kts 108°
2026-05-06 10:26 53.25256 -0.38845 28720 ft 493 kts 108°
2026-05-06 10:26 53.24221 -0.33406 29228 ft 496 kts 109°
2026-05-06 10:27 53.23163 -0.27868 29866 ft 496 kts 109°
2026-05-06 10:27 53.22126 -0.22450 30612 ft 493 kts 109°
2026-05-06 10:27 53.21088 -0.17042 31338 ft 489 kts 109°
2026-05-06 10:27 53.20055 -0.11678 31954 ft 487 kts 109°
2026-05-06 10:28 53.19002 -0.06230 32491 ft 486 kts 109°
2026-05-06 10:28 53.17958 -0.00838 32985 ft 486 kts 109°
2026-05-06 10:28 53.16925 0.04477 33454 ft 485 kts 109°
2026-05-06 10:28 53.15963 0.09421 33883 ft 483 kts 109°
2026-05-06 10:29 53.15097 0.13854 34239 ft 483 kts 109°
2026-05-06 10:29 53.14456 0.17130 34488 ft 482 kts 109°
2026-05-06 10:29 53.13524 0.21886 34841 ft 482 kts 109°
2026-05-06 10:29 53.12112 0.29062 35001 ft 484 kts 109°
2026-05-06 10:30 53.09706 0.41240 35000 ft 480 kts 109°
2026-05-06 10:30 53.07617 0.51747 34998 ft 482 kts 109°
2026-05-06 10:31 53.05515 0.62265 34995 ft 482 kts 109°
2026-05-06 10:31 53.03397 0.72806 34982 ft 480 kts 110°
2026-05-06 10:32 53.01284 0.83262 34978 ft 479 kts 110°
2026-05-06 10:32 52.99153 0.93754 34977 ft 479 kts 109°
2026-05-06 10:33 52.96994 1.04144 34968 ft 478 kts 111°
2026-05-06 10:33 52.94647 1.14479 34964 ft 478 kts 111°
2026-05-06 10:34 52.92297 1.24786 34970 ft 479 kts 111°
2026-05-06 10:34 52.89945 1.35083 34967 ft 478 kts 111°
2026-05-06 10:35 52.87657 1.45061 34965 ft 479 kts 111°
2026-05-06 10:35 52.85293 1.55333 34966 ft 478 kts 111°
2026-05-06 10:36 52.82919 1.65603 34966 ft 478 kts 112°
2026-05-06 10:36 52.80553 1.75788 34963 ft 477 kts 112°
2026-05-06 10:37 52.78167 1.86012 34963 ft 476 kts 112°
2026-05-06 10:37 52.75778 1.96204 34965 ft 476 kts 112°
2026-05-06 10:38 52.73387 2.06352 34978 ft 476 kts 112°
2026-05-06 10:38 52.70980 2.16527 34962 ft 474 kts 112°
2026-05-06 10:39 52.68581 2.26616 34956 ft 474 kts 112°
2026-05-06 10:39 52.66181 2.36663 34952 ft 474 kts 112°
2026-05-06 10:40 52.63752 2.46782 34958 ft 475 kts 112°
2026-05-06 10:40 52.61327 2.56842 34950 ft 473 kts 112°
2026-05-06 10:41 52.58912 2.66812 34950 ft 472 kts 113°
2026-05-06 10:41 52.56483 2.76796 34937 ft 471 kts 112°
2026-05-06 10:42 52.54018 2.86765 34933 ft 471 kts 115°
2026-05-06 10:42 52.51191 2.96448 34934 ft 470 kts 117°
2026-05-06 10:43 52.48356 3.06077 34932 ft 470 kts 116°
2026-05-06 10:44 52.44117 3.20492 34933 ft 469 kts 116°
2026-05-06 10:44 52.41302 3.30048 34931 ft 468 kts 116°
2026-05-06 10:45 52.38469 3.39635 34931 ft 468 kts 116°
2026-05-06 10:45 52.35633 3.49201 34928 ft 468 kts 116°
2026-05-06 10:46 52.32803 3.58709 34915 ft 468 kts 116°
2026-05-06 10:46 52.30081 3.67824 34917 ft 468 kts 117°
2026-05-06 10:47 52.27159 3.77571 34906 ft 468 kts 117°
2026-05-06 10:47 52.24291 3.87098 34906 ft 468 kts 117°
2026-05-06 10:48 52.21442 3.96523 34903 ft 466 kts 117°
2026-05-06 10:48 52.18590 4.05922 34899 ft 466 kts 117°
2026-05-06 10:49 52.15714 4.15366 34895 ft 467 kts 117°
2026-05-06 10:49 52.13189 4.23628 34886 ft 467 kts 117°